BEIDOU-3 M9 (C29)

Last updated on Sun Oct 19 2025 00:03:25 GMT+0000 (Coordinated Universal Time)

1 43245U 18029A 25290.78024345 -.00000057 00000+0 00000+0 0 9990 2 43245 54.4149 308.4189 0002132 249.4483 110.5672 1.86232818 51380
UTC large
Height (km)
Speed (km/s)
/
Latitude / Longitude
Inclination (degrees)
Orbital Period (minutes)
Azimuth
Elevation
Range (km)
Doppler Factor

Next 0 passes for location: London (51.5072 / 0.1276)

Sorry there are no passes over London.